Home > Weather > Reno > Past weeks

Flag for USA Past Weather in Reno, Nevada, USA — Yesterday and Last 2 Weeks

Now
69 °F

Clear.


Feels Like: 69 °F
Forecast: 54 / 92 °F
Wind: No wind

Location: Reno Tahoe International Airport

Current Time: Aug 29, 2016 at 12:21:48 AM

Latest Report: Aug 28, 2016 at 11:55 PM


Visibility: 10 mi

Pressure: 30.05 "Hg (25.62 "Hg at 1372m altitude)

Humidity: 24%

Dew Point: 31 °F

Location of RenoLocation

Past Weather in Reno — Graph

°F

Reno Temperature Yesterday

Maximum temperature yesterday: 92 °F (at 3:55 PM)
Minimum temperature yesterday: 56 °F (at 5:55 AM)
Average temperature yesterday: 73 °F

High & Low Weather Summary for the Past Weeks

 TemperatureHumidityPressure
High98 °F (Aug 19, 3:55 PM)65% (Aug 23, 4:55 AM)30.10 "Hg (Aug 23, 4:55 AM)
Low53 °F (Aug 24, 6:55 AM)7% (Aug 14, 3:55 PM)29.75 "Hg (Aug 21, 3:55 PM)
Average76 °F25%29.90 "Hg
* Reported Aug 13 10:55 PM — Aug 28 10:55 PM, Reno, Weather by CustomWeather, © 2016

Note: Actual official high and low records may vary slightly from our data, if they occured in-between our weather recording intervals... More about our weather records

Advertising

Reno Weather History for the Previous 24 Hours

Scroll right to see more
 ConditionsComfort  
Time TempWeatherWind HumidityBarometerVisibility
10:55 PM
Sun, Aug 28
72 °FClear.No wind21%30.05 "Hg10 mi
9:55 PM77 °FClear.5 mph16%30.04 "Hg10 mi
8:55 PM79 °FClear.7 mph15%30.03 "Hg10 mi
7:55 PM81 °FPassing clouds.17 mph14%30.00 "Hg10 mi
6:55 PM84 °FSunny.16 mph13%29.99 "Hg10 mi
5:55 PM88 °FSunny.16 mph12%29.97 "Hg10 mi
4:55 PM90 °FPassing clouds.15 mph10%29.96 "Hg10 mi
3:55 PM92 °FPassing clouds.6 mph9%29.96 "Hg10 mi
2:55 PM89 °FSunny.6 mph11%29.98 "Hg10 mi
1:55 PM87 °FSunny.5 mph11%30.01 "Hg10 mi
12:55 PM84 °FSunny.5 mph12%30.03 "Hg10 mi
11:55 AM80 °FSunny.No wind15%30.05 "Hg10 mi
10:55 AM76 °FSunny.3 mph19%30.06 "Hg10 mi
9:55 AM70 °FSunny.No wind25%30.08 "Hg10 mi
8:55 AM65 °FSunny.No wind31%30.09 "Hg10 mi
7:55 AM58 °FSunny.No wind43%30.09 "Hg10 mi
6:55 AM56 °FClear.3 mph44%30.07 "Hg10 mi
5:55 AM56 °FClear.3 mph47%30.04 "Hg10 mi
4:55 AM57 °FClear.No wind44%30.02 "Hg10 mi
3:55 AM60 °FClear.No wind39%30.01 "Hg10 mi
2:55 AM60 °FClear.No wind39%29.99 "Hg10 mi
1:55 AM61 °FClear.3 mph36%29.99 "Hg10 mi
12:55 AM64 °FClear.3 mph34%29.98 "Hg10 mi
Weather by CustomWeather, © 2016

See weather overviewHow to use our weather pages